Location: Academy at Carrie F Thomas
(32.8490°N, 97.2053°W)
Time: 20:18:44
(UTC+00:00)

Cosmos 2228 Rocket - Pass Details

Date: 04 July 2022
Orbit: 618 x 651 km, 82.5° (Epoch: 17 August)

Event Time Altitude Azimuth Distance (km) Brightness Sun altitude
Rises 10:51:52 0° 338° (NNW) 2,918 6.7 -6.9°
Reaches altitude 10° 10:54:25 10° 324° (NW) 2,013 5.7 -6.5°
Maximum altitude 10:58:00 24° 271° (W) 1,308 4.3 -5.9°
Drops below altitude 10° 11:01:36 10° 217° (SW) 2,019 5.1 -5.2°
Sets 11:04:10 0° 203° (SSW) 2,929 6.0 -4.8°
